Temperature
13 13 13 13 13 13 13 13 13 12 12 12 12 12 12 12 12 12 11 11 11 11 12 12 12 12 11 11 11 12 12 12 12 12 12 12 12 12 12 12 12 12 12
12 12 12 12 12 12 12 12 12 12 12 12 12 12 12 11 11 11 11 11 11 11 11 11 11 11 11 11 11 11 11 11 11 11 11 11 11 11 11 12 12 11 11
12 12 12 12 12 12 12 12 12 12 12 11 11 11 11 11 11 11 11 11 11 11 11 11 11 11 11 11 11 11 11 11 11 11 11 11 11 11 11 11 11 11 11
12 12 12 12 12 12 12 12 12 12 11 11 11 11 11 11 11 11 10 10 10 10 10 10 10 10 10 10 10 10 10 10 10 10 10 11 11 11 11 11 11 11 10
12 12 12 12 12 12 11 11 11 11 11 11 11 11 11 10 10 10 10 10 10 10 10 10 10 10 10 10 10 10 10 10 10 10 10 10 10 10 10 10 10 10 10
11 11 11 11 11 11 11 11 11 11 11 11 10 10 10 10 10 10 10 10 10 10 10 10 10 10 10 10 10 10 10 10 9 9 9 10 10 10 10 10 10 10 10
11 11 11 11 11 11 11 11 11 11 10 10 10 10 10 9 9 9 9 9 9 9 9 9 9 9 9 9 9 9 9 9 9 9 9 9 9 9 9 9 9 9 9
11 11 11 11 11 11 11 11 11 10 10 10 10 9 9 9 9 9 9 9 9 9 9 9 9 9 9 9 9 9 9 9 9 9 9 9 9 8 8 9 9 9 9
10 10 10 10 10 10 11 10 10 10 10 10 10 9 9 9 9 9 9 9 9 9 9 9 9 9 9 9 9 9 9 8 8 8 8 8 8 8 8 8 8 8 8
10 10 10 10 10 10 10 10 10 10 10 9 9 9 9 9 9 9 9 9 9 9 9 8 8 8 8 8 8 8 8 8 8 8 8 8 8 8 8 8 8 8 8
10 10 10 10 10 10 10 10 10 10 9 9 9 9 9 9 9 8 8 9 9 9 8 8 8 8 8 8 8 8 8 8 8 8 8 8 8 7 7 7 7 7 7
9 9 9 9 9 9 9 9 9 9 9 9 9 9 8 8 8 8 8 8 8 8 8 8 8 8 8 8 8 7 7 7 7 7 7 7 7 7 7 7 7 7 7
9 9 9 9 9 9 9 9 9 9 9 8 8 8 8 8 8 8 7 7 7 8 8 8 8 7 7 7 7 7 7 7 7 7 7 7 7 7 7 7 7 7 7
8 8 8 8 8 8 8 8 8 8 8 8 8 8 8 8 7 7 7 7 6 7 7 7 7 7 7 7 7 7 7 7 7 7 7 7 7 7 6 6 6 6 6
8 8 8 8 8 8 8 8 8 7 7 7 7 7 7 7 7 7 7 6 6 5 6 7 7 7 6 6 6 6 6 6 6 6 6 6 6 6 6 6 6 6 6
8 8 8 8 7 7 7 7 7 7 7 7 7 6 7 7 6 6 6 6 6 5 5 6 6 6 6 6 6 6 6 6 6 6 6 6 5 5 5 5 5 5 5
7 7 7 7 7 7 7 7 7 6 6 6 6 6 6 6 6 6 6 6 5 5 5 5 5 5 5 5 5 5 5 5 5 5 5 5 5 5 5 5 5 5 5
7 7 7 7 7 7 6 6 6 6 6 6 6 6 6 5 5 5 5 5 5 5 4 5 5 5 5 5 5 5 5 5 5 5 4 4 4 4 4 4 4 4 4
6 6 6 6 6 6 6 6 6 6 5 5 5 5 5 5 5 5 5 4 4 4 4 4 4 4 4 4 4 4 4 4 4 4 4 4 4 4 4 4 4 4 4
6 6 6 6 6 5 5 5 5 5 5 5 5 5 5 4 4 4 4 4 4 4 4 3 3 3 3 3 3 3 4 4 4 4 4 4 3 3 3 3 3 3 3
5 5 5 5 5 5 5 5 5 5 4 4 4 4 4 4 4 4 4 3 3 3 3 3 3 3 3 3 3 2 2 3 3 3 3 3 3 3 3 3 3 3 3
5 5 5 5 5 5 4 4 4 4 4 4 4 4 4 3 3 3 3 3 3 3 2 2 2 2 2 2 2 2 2 2 2 2 2 2 2 2 2 2 2 2 2
4 4 4 4 4 4 4 4 4 3 3 3 3 3 3 3 3 3 2 2 2 2 2 2 2 2 1 1 1 1 1 1 1 1 1 2 2 2 2 2 2 1 1
4 4 4 4 4 4 3 3 3 3 3 3 3 3 3 3 2 2 2 2 2 2 1 1 1 1 1 1 0 0 0 0 0 0 0 0 1 1 1 1 1 1 1
3 3 3 3 3 3 3 3 3 2 2 2 2 2 2 2 2 2 1 1 1 1 1 1 1 0 0 0 -0 -0 -0 -0 -0 -0 -0 -1 0 0 1 1 1 1 0
3 3 2 2 2 2 2 2 2 2 2 2 2 2 2 2 1 1 1 1 1 1 0 0 0 -0 -0 -0 -1 -1 -1 -1 -1 -1 -1 -1 -1 -1 -1 -0 0 -0 -0
Wind_Speed
3 3 3 3 3 3 3 3 3 4 4 4 5 5 4 4 4 4 4 5 5 4 3 3 3 2 2 2 2 2 2 1 1 2 3 3 4 4 4 5 5 5 5
4 3 2 2 2 2 3 3 3 3 3 3 3 4 3 4 4 4 4 4 5 6 5 4 4 4 4 3 3 3 3 3 2 3 3 4 4 4 4 5 5 6 6
5 4 2 2 1 2 3 3 3 3 3 3 2 2 3 3 4 4 4 4 4 5 6 6 5 6 6 5 5 4 3 3 3 3 4 4 4 4 5 5 5 5 6
6 5 2 1 2 3 3 2 2 2 2 2 2 1 2 3 3 4 4 4 4 4 5 6 6 6 6 6 6 6 5 4 4 4 5 5 6 6 6 6 7 7 7
6 5 3 2 3 3 2 2 2 2 2 2 2 2 2 2 2 3 4 4 4 4 4 5 5 6 6 6 7 7 6 6 6 5 6 6 7 7 7 8 8 8 8
5 5 4 3 3 2 2 2 3 3 2 2 2 2 2 1 1 2 2 3 4 4 4 5 4 4 5 5 6 7 6 6 6 6 6 7 8 8 8 8 8 8 8
5 5 3 3 3 2 3 3 3 3 2 1 2 2 2 2 2 1 2 2 3 3 4 4 4 4 4 5 5 6 6 6 6 6 7 7 8 9 9 8 8 8 9
5 4 4 2 2 2 3 3 3 3 2 1 2 2 1 1 1 1 1 1 1 3 3 3 3 4 3 3 4 5 6 6 7 7 7 7 8 9 9 9 9 9 9
5 5 5 3 3 2 3 2 3 4 3 1 1 2 2 2 1 1 0 0 1 1 2 3 3 3 3 3 3 4 5 6 7 8 8 8 9 9 9 10 10 9 9
4 5 5 4 3 2 3 2 2 3 4 3 1 1 1 2 2 1 1 1 1 1 2 2 2 3 3 3 3 4 5 6 7 8 8 9 9 10 10 10 10 10 9
3 4 4 4 3 2 3 3 2 2 3 4 3 2 1 2 1 2 2 2 2 2 2 2 2 2 3 3 3 4 5 6 7 8 8 9 10 10 10 10 10 10 10
1 2 3 3 3 2 2 2 3 3 3 3 3 2 2 2 2 2 2 2 3 3 2 2 2 2 2 3 3 5 5 6 7 8 9 9 9 10 10 10 11 10 10
1 2 2 2 2 2 2 2 2 2 2 3 3 3 2 2 2 2 2 1 2 2 2 2 2 2 3 3 4 6 6 7 7 8 9 9 9 10 10 10 11 10 11
2 2 3 3 3 3 3 2 2 2 2 2 2 2 2 2 2 2 2 2 1 2 2 3 2 2 3 4 5 6 6 7 8 8 8 9 9 10 10 10 10 10 11
1 2 3 2 2 3 3 3 2 2 2 2 2 2 2 2 2 2 2 3 3 2 3 3 2 2 3 4 5 6 6 8 8 8 8 9 10 10 10 10 10 10 10
2 2 2 2 2 2 2 2 2 2 2 2 2 2 2 2 2 2 2 2 3 3 3 3 3 3 4 5 6 6 7 8 7 8 9 10 10 10 10 10 10 10 10
2 3 3 3 2 2 2 2 2 2 3 2 2 3 3 2 2 2 2 2 3 3 4 3 2 2 3 3 5 6 7 7 7 8 9 10 9 9 10 10 10 10 10
2 3 3 3 3 3 3 3 3 3 3 4 3 3 3 2 3 3 3 3 3 3 3 5 3 2 3 4 4 4 5 6 7 9 9 10 10 9 10 9 10 10 10
2 2 3 3 3 3 3 4 4 4 4 4 4 4 4 3 4 4 4 4 3 3 3 3 4 3 2 2 3 3 4 4 6 8 8 9 9 9 10 10 10 9 9
3 3 3 4 4 4 4 4 4 4 4 4 4 5 5 5 5 5 5 5 4 4 3 3 4 3 3 2 2 3 4 3 4 5 6 7 8 9 10 10 9 9 9
4 4 4 4 4 4 4 4 4 4 5 5 4 5 5 6 7 6 5 5 5 4 4 4 4 3 3 2 3 2 4 5 4 2 3 4 5 5 7 9 9 9 9
3 3 4 4 4 4 6 7 6 5 5 5 5 5 5 6 7 8 8 8 7 6 6 5 4 5 5 4 3 3 3 4 4 1 2 5 3 4 5 7 9 9 10
3 4 4 4 5 6 8 8 8 5 5 6 6 5 5 5 6 5 6 7 8 10 9 6 6 7 6 5 4 4 4 5 6 3 3 6 3 5 5 8 10 10 10
4 4 5 5 5 6 8 8 8 5 5 6 6 6 6 6 6 6 5 5 6 7 8 6 7 7 6 5 5 5 5 5 5 4 3 5 4 4 5 6 8 8 9
4 4 4 5 5 6 8 8 7 4 5 6 6 6 6 6 9 9 6 6 7 6 7 9 10 10 10 10 6 2 3 3 5 4 3 3 3 4 4 4 5 6 7
5 4 5 5 6 7 8 8 7 4 5 5 5 6 9 9 10 10 7 6 8 7 5 5 6 7 7 8 8 6 5 4 4 4 3 2 3 2 4 3 2 4 5
Wind_Direction
128 117 110 96 80 96 102 95 93 92 88 88 90 91 85 80 73 64 52 48 45 44 52 62 69 60 40 39 48 38 25 2 356 334 330 332 328 324 328 331 328 326 326
132 126 118 106 82 92 110 109 107 109 103 99 86 83 87 88 80 71 57 45 39 39 43 50 55 53 38 37 34 26 15 9 354 342 332 323 323 324 324 325 325 326 324
136 130 124 114 91 100 112 102 97 96 102 98 89 81 85 87 82 75 66 54 42 37 40 43 46 45 41 34 30 24 21 13 7 6 356 341 328 322 319 317 318 320 320
133 127 127 133 109 102 109 123 119 104 96 99 99 86 81 80 73 74 73 63 55 47 44 42 39 39 36 26 23 24 24 21 15 9 2 347 334 327 320 315 314 315 314
136 128 132 131 111 103 104 132 115 120 114 99 95 82 75 82 72 74 71 66 60 52 41 28 34 31 29 22 17 18 25 28 20 9 358 350 340 332 326 318 313 314 315
132 124 120 116 110 107 101 116 119 105 118 125 105 72 53 69 78 72 68 61 57 50 40 33 30 20 21 18 14 11 13 20 14 7 0 355 348 341 333 326 321 319 318
128 121 117 111 110 119 120 125 123 114 92 100 90 62 29 43 73 71 57 56 47 41 38 32 32 25 10 6 11 9 9 7 0 357 353 350 348 347 342 336 329 327 327
133 132 127 126 125 123 107 102 120 126 103 93 111 114 29 333 345 24 38 65 29 27 21 13 26 26 18 13 4 8 5 360 351 346 346 345 342 341 343 342 334 326 324
145 140 136 129 127 132 137 126 142 144 151 123 102 136 148 220 278 308 312 325 346 344 337 350 0 2 357 356 354 352 354 349 342 339 338 335 333 331 332 334 338 334 327
138 145 141 139 136 142 148 153 143 160 159 166 153 73 122 148 163 274 295 297 329 308 291 306 320 332 333 336 333 343 343 338 334 332 331 329 326 327 328 329 330 333 328
126 140 143 142 142 150 154 154 153 159 175 171 166 156 110 81 107 161 257 297 311 276 268 268 276 296 308 314 313 325 331 327 325 325 326 327 327 327 326 327 327 330 329
132 132 137 138 138 139 154 166 168 164 175 168 164 161 160 156 163 161 213 264 281 279 279 270 260 265 288 296 296 313 317 319 318 319 319 323 326 326 325 323 323 324 325
184 181 146 147 148 147 146 140 158 171 180 168 176 180 176 181 165 165 174 229 269 290 295 275 256 260 281 294 294 301 303 309 311 313 314 318 322 323 322 320 318 319 321
197 181 167 164 157 150 147 141 160 182 181 177 177 174 174 185 176 174 169 170 266 288 283 278 286 268 287 293 301 302 296 299 304 307 310 314 317 317 317 315 316 316 316
175 164 164 163 159 156 154 155 168 189 182 187 191 188 190 198 191 192 181 176 180 238 263 262 268 284 301 292 300 299 294 296 297 301 306 310 310 310 310 310 310 311 312
168 164 164 160 162 164 165 164 170 183 180 200 196 192 208 209 203 202 198 199 197 201 240 248 251 286 302 298 298 297 293 295 296 299 303 307 305 304 305 307 307 308 309
179 183 184 177 176 181 179 176 192 194 200 214 212 208 223 214 210 211 203 202 208 199 240 268 257 273 277 283 300 294 290 288 290 296 299 303 303 303 305 305 304 306 306
189 190 185 188 194 194 190 190 204 205 209 219 223 219 232 222 222 217 210 213 215 209 220 259 271 266 264 269 281 284 291 288 287 293 296 300 300 301 303 303 304 304 303
189 190 191 202 209 209 205 206 206 212 218 222 222 223 229 215 229 227 219 217 220 222 219 245 271 272 273 274 284 288 287 287 288 291 296 299 298 299 300 300 300 302 303
195 202 210 213 215 218 218 216 212 217 227 232 228 227 228 220 225 226 222 218 215 218 224 241 262 271 267 271 268 281 298 291 288 296 299 299 299 299 300 300 298 298 299
212 207 209 216 217 219 223 219 219 223 228 240 242 237 234 234 234 229 225 215 205 214 219 233 252 264 265 267 266 264 286 299 290 279 298 297 298 297 297 294 291 291 295
218 209 214 218 224 233 237 234 226 222 226 232 244 247 245 246 249 248 248 240 222 214 220 226 243 247 260 255 257 268 282 302 294 276 295 289 272 276 281 282 284 285 291
222 226 229 226 235 243 244 244 238 229 228 231 233 238 249 247 250 241 251 256 250 244 234 226 234 243 249 242 242 260 258 264 268 275 292 284 279 276 280 283 286 285 286
230 236 239 237 245 256 256 253 247 234 232 234 231 229 236 246 241 235 233 243 247 247 241 232 232 241 241 236 228 244 255 269 275 263 230 269 280 274 287 290 288 286 289
237 241 243 241 246 259 259 256 249 230 237 243 238 232 232 239 249 248 236 240 254 259 260 250 248 252 256 257 252 247 249 270 281 270 218 242 272 285 286 277 281 284 290
242 246 251 244 242 253 259 255 246 227 239 249 248 241 242 244 251 247 234 232 249 256 249 255 255 258 257 253 245 228 223 247 269 273 230 227 262 296 297 276 271 284 287
Height
1518 1520 1521 1523 1524 1525 1526 1527 1528 1529 1530 1531 1531 1532 1532 1533 1534 1534 1534 1535 1535 1535 1536 1536 1536 1536 1536 1537 1536 1536 1536 1536 1536 1536 1536 1535 1535 1535 1534 1534 1533 1533 1532
1517 1518 1519 1521 1522 1523 1524 1525 1526 1527 1528 1529 1530 1531 1531 1532 1532 1533 1533 1533 1534 1534 1534 1534 1534 1535 1535 1535 1535 1534 1534 1534 1534 1534 1534 1533 1533 1533 1532 1532 1531 1530 1530
1515 1517 1518 1519 1520 1521 1523 1524 1525 1526 1527 1528 1529 1529 1530 1531 1531 1531 1532 1532 1532 1532 1533 1533 1533 1533 1533 1533 1533 1533 1532 1532 1532 1532 1532 1531 1531 1530 1530 1529 1528 1528 1527
1514 1515 1516 1517 1519 1520 1521 1522 1523 1524 1525 1526 1527 1528 1528 1529 1530 1530 1530 1531 1531 1531 1531 1531 1531 1531 1531 1531 1531 1531 1531 1530 1530 1530 1529 1529 1529 1528 1527 1526 1526 1525 1524
1512 1513 1515 1516 1517 1518 1518 1520 1521 1522 1523 1524 1525 1526 1527 1527 1528 1529 1529 1529 1529 1529 1529 1530 1530 1529 1529 1529 1529 1529 1529 1528 1528 1527 1527 1527 1526 1525 1525 1524 1523 1522 1521
1511 1512 1513 1514 1515 1516 1517 1518 1519 1520 1521 1522 1523 1524 1525 1526 1526 1527 1527 1528 1528 1528 1528 1528 1528 1528 1528 1527 1527 1527 1527 1526 1526 1525 1525 1524 1523 1523 1522 1521 1520 1519 1518
1509 1510 1511 1512 1513 1514 1515 1516 1517 1518 1520 1521 1522 1523 1524 1524 1524 1525 1525 1525 1526 1526 1526 1526 1526 1526 1526 1526 1525 1525 1525 1524 1524 1523 1522 1522 1521 1520 1519 1518 1517 1516 1515
1507 1508 1509 1510 1511 1512 1513 1514 1515 1516 1517 1519 1520 1521 1522 1523 1522 1523 1523 1523 1524 1524 1524 1524 1524 1523 1523 1523 1523 1523 1522 1522 1521 1520 1520 1519 1518 1517 1516 1515 1514 1513 1512
1505 1506 1507 1508 1509 1511 1511 1512 1513 1514 1515 1517 1518 1519 1520 1520 1520 1521 1521 1521 1521 1521 1521 1521 1521 1521 1521 1520 1520 1520 1519 1519 1518 1518 1517 1516 1515 1514 1513 1512 1511 1510 1509
1502 1504 1505 1507 1507 1509 1509 1510 1511 1512 1513 1514 1515 1516 1517 1517 1518 1518 1518 1518 1519 1519 1519 1519 1518 1518 1518 1517 1517 1517 1516 1516 1515 1515 1514 1513 1512 1511 1510 1509 1508 1507 1505
1500 1502 1503 1504 1505 1506 1507 1508 1509 1510 1511 1511 1512 1513 1514 1515 1515 1515 1515 1515 1515 1516 1516 1516 1515 1515 1515 1515 1514 1514 1514 1513 1512 1512 1511 1510 1509 1508 1507 1506 1505 1503 1502
1498 1499 1501 1502 1503 1504 1505 1506 1507 1508 1508 1509 1509 1510 1511 1512 1512 1513 1512 1512 1512 1512 1513 1513 1512 1512 1512 1512 1511 1511 1510 1510 1509 1508 1507 1506 1505 1504 1503 1502 1501 1500 1499
1496 1497 1498 1500 1501 1502 1502 1503 1504 1505 1505 1506 1506 1507 1508 1509 1509 1510 1509 1509 1509 1509 1509 1509 1509 1509 1509 1508 1508 1507 1507 1506 1505 1504 1503 1502 1501 1500 1499 1498 1497 1496 1495
1494 1495 1496 1497 1498 1499 1500 1500 1501 1502 1502 1503 1503 1504 1505 1506 1506 1506 1506 1506 1505 1505 1505 1505 1505 1505 1505 1505 1504 1504 1503 1502 1501 1500 1499 1498 1497 1496 1495 1494 1493 1492 1491
1491 1492 1493 1494 1495 1496 1497 1498 1498 1499 1499 1500 1500 1501 1501 1502 1502 1503 1503 1503 1504 1502 1501 1501 1502 1502 1501 1501 1500 1500 1499 1498 1497 1496 1495 1494 1493 1491 1490 1489 1488 1487 1486
1489 1490 1491 1491 1492 1493 1494 1494 1495 1496 1496 1496 1497 1498 1498 1498 1499 1499 1499 1500 1500 1499 1498 1497 1498 1498 1497 1497 1496 1496 1495 1493 1493 1492 1490 1489 1488 1487 1486 1485 1484 1483 1482
1486 1487 1488 1489 1489 1490 1490 1491 1492 1492 1492 1493 1494 1494 1494 1494 1495 1495 1495 1495 1496 1496 1494 1493 1494 1494 1493 1493 1492 1491 1491 1489 1488 1487 1485 1484 1483 1482 1481 1480 1479 1478 1477
1483 1484 1485 1486 1486 1486 1487 1487 1488 1488 1489 1489 1490 1490 1490 1490 1490 1491 1491 1491 1491 1491 1491 1489 1489 1489 1489 1488 1487 1486 1486 1485 1483 1482 1481 1479 1478 1477 1476 1475 1474 1473 1472
1480 1481 1482 1482 1483 1483 1484 1484 1484 1484 1485 1485 1485 1485 1485 1486 1486 1486 1486 1486 1487 1487 1486 1485 1484 1484 1484 1483 1482 1481 1480 1479 1479 1477 1476 1474 1473 1472 1471 1470 1468 1467 1466
1477 1478 1478 1479 1479 1480 1480 1480 1480 1480 1480 1481 1481 1481 1481 1481 1481 1481 1481 1482 1482 1481 1481 1481 1480 1479 1479 1478 1477 1476 1474 1474 1473 1472 1471 1469 1468 1467 1466 1465 1463 1462 1461
1473 1474 1474 1475 1475 1476 1476 1476 1476 1476 1476 1476 1476 1476 1476 1476 1476 1476 1476 1476 1476 1476 1476 1475 1474 1474 1473 1472 1472 1470 1469 1468 1467 1466 1465 1464 1463 1462 1461 1459 1458 1457 1456
1469 1470 1470 1471 1471 1471 1472 1472 1472 1472 1472 1471 1471 1471 1471 1471 1471 1471 1471 1471 1471 1471 1470 1470 1469 1468 1467 1467 1467 1466 1464 1462 1461 1461 1459 1458 1458 1456 1455 1454 1452 1451 1450
1465 1465 1465 1466 1466 1467 1467 1467 1467 1467 1467 1467 1467 1467 1467 1466 1466 1466 1466 1466 1465 1465 1465 1465 1464 1463 1462 1462 1462 1460 1459 1458 1456 1455 1454 1451 1451 1450 1449 1447 1447 1446 1445
1460 1460 1461 1461 1461 1461 1461 1462 1462 1462 1461 1462 1462 1462 1461 1461 1461 1460 1460 1460 1460 1460 1459 1459 1458 1458 1458 1457 1456 1456 1454 1452 1450 1450 1449 1446 1444 1444 1443 1442 1441 1440 1439
1454 1455 1455 1455 1455 1455 1456 1456 1456 1456 1455 1456 1456 1456 1456 1455 1455 1455 1455 1454 1453 1453 1453 1453 1452 1452 1452 1451 1451 1450 1448 1447 1444 1443 1443 1441 1439 1437 1436 1435 1435 1434 1433
1449 1449 1449 1449 1449 1449 1450 1450 1450 1450 1449 1449 1450 1450 1450 1450 1450 1449 1449 1448 1447 1447 1447 1447 1446 1446 1446 1445 1445 1444 1443 1442 1439 1438 1437 1437 1434 1433 1430 1428 1429 1429 1428